Location: Санкт-Петербург
(59.9387°N, 30.3162°E)
Time: 23:40:41
(UTC+03:00)

ISS - Visible Passes

Search period start: 25 September 2022 00:00
Search period end: 05 October 2022 00:00
Orbit: 414 x 417 km, 51.6° (Epoch: 25 September)

Date Brightness Start Highest point End Pass type
(mag) Time Alt. Az. Time Alt. Az. Time Alt. Az.
25 Sep -1.9 20:00:44 10° SW 20:03:17 20° S 20:05:28 12° SE visible
25 Sep -1.2 21:37:22 10° SW 21:38:20 13° SW 21:38:20 13° SW visible
26 Sep -1.7 20:48:36 10° WSW 20:50:47 16° SSW 20:51:30 15° S visible
27 Sep -1.7 19:59:56 10° WSW 20:02:20 18° SSW 20:04:39 10° SSE visible
28 Sep -1.2 20:48:24 10° SW 20:49:43 12° SSW 20:50:42 11° S visible
29 Sep -1.3 19:59:21 10° SW 20:01:16 14° SSW 20:03:10 10° SSE visible
02 Oct -1.0 19:10:06 10° SW 19:11:33 12° SSW 19:12:59 10° S visible
